Location: Gwatt
(46.7204°N, 7.6223°E)
Time: 01:08:39
(UTC+00:00)

Transit 2A - Pass Details

Date: 21 January 2021
Orbit: 601 x 958 km, 66.7° (Epoch: 07 March)

Event Time Altitude Azimuth Distance (km) Brightness Sun altitude
Rises 11:08:42 0° 331° (NNW) 3,094 8.6 23.1°
Reaches altitude 10° 11:11:37 10° 347° (NNW) 2,112 7.8 23.2°
Maximum altitude 11:15:16 22° 38° (NE) 1,419 7.2 23.2°
Drops below altitude 10° 11:18:45 10° 89° (E) 1,989 8.3 23.3°
Sets 11:21:23 0° 106° (ESE) 2,864 9.2 23.3°
